This is the latest recevied weather packets stored in our database for station/object WX1NWA. If no packets are shown the sender has not sent any weather packets the latest 10 day(s).
| Time | Temp. | Humidity | Pressure | Rain* | Wind** | Luminosity | Snow |
|---|---|---|---|---|---|---|---|
| 1777828603 | 20° C | 48% | 1021.3 hPa | 0 mm | - | 739 W/m² | - |
| 1777828301 | 19.44° C | 50% | 1021.7 hPa | 0 mm | - | 738 W/m² | - |
| 1777827998 | 20° C | 49% | 1021.5 hPa | 0 mm | - | 737 W/m² | - |
| 1777827694 | 18.89° C | 50% | 1021.4 hPa | 0 mm | - | 744 W/m² | - |
| 1777827391 | 18.89° C | 49% | 1021.3 hPa | 0 mm | - | 764 W/m² | - |
| 1777827087 | 19.44° C | 48% | 1021.5 hPa | 0 mm | - | 769 W/m² | - |
| 1777826784 | 19.44° C | 51% | 1021.9 hPa | 0 mm | - | 769 W/m² | - |
| 1777826481 | 18.33° C | 49% | 1021.8 hPa | 0 mm | - | 775 W/m² | - |
| 1777826178 | 18.33° C | 49% | 1021.9 hPa | 0 mm | - | 789 W/m² | - |
| 1777825876 | 18.33° C | 51% | 1021.8 hPa | 0 mm | - | 788 W/m² | - |
| 1777825573 | 18.33° C | 50% | 1022 hPa | 0 mm | - | 812 W/m² | - |
| 1777825270 | 18.33° C | 48% | 1022.2 hPa | 0 mm | - | 831 W/m² | - |
| 1777824967 | 20° C | 45% | 1022.3 hPa | 0 mm | - | 814 W/m² | - |
| 1777824663 | 19.44° C | 46% | 1022.4 hPa | 0 mm | - | 798 W/m² | - |
| 1777824361 | 18.33° C | 46% | 1022.4 hPa | 0 mm | - | 780 W/m² | - |
| 1777824056 | 18.89° C | 47% | 1022.4 hPa | 0 mm | - | 783 W/m² | - |
| 1777823752 | 17.78° C | 46% | 1022.5 hPa | 0 mm | - | 805 W/m² | - |
| 1777823450 | 17.78° C | 49% | 1022.6 hPa | 0 mm | - | 806 W/m² | - |
| 1777823147 | 17.22° C | 47% | 1022.6 hPa | 0 mm | - | 773 W/m² | - |
| 1777822844 | 17.78° C | 45% | 1022.6 hPa | 0 mm | - | 747 W/m² | - |
| 1777822542 | 17.78° C | 46% | 1022.6 hPa | 0 mm | - | 737 W/m² | - |
| 1777822239 | 17.78° C | 48% | 1022.7 hPa | 0 mm | - | 739 W/m² | - |
| 1777821937 | 17.22° C | 48% | 1022.7 hPa | 0 mm | - | 732 W/m² | - |
| 1777821635 | 17.22° C | 46% | 1022.7 hPa | 0 mm | - | 718 W/m² | - |
| 1777821333 | 16.67° C | 45% | 1022.7 hPa | 0 mm | - | 712 W/m² | - |
* Rain latest hour (hover to see other rain measurements)
** Current wind speed in m/s (hover to see current wind gust speed)